TimePST,TemperatureF,Dew PointF,Humidity,Sea Level PressureIn,VisibilityMPH,Wind Direction,Wind SpeedMPH,Gust SpeedMPH,PrecipitationIn,Events,Conditions,WindDirDegrees,DateUTC
12:56 AM,46.9,44.1,90,29.99,10.0,Calm,Calm,-,N/A,,Scattered Clouds,0,2011-11-14 08:56:00
1:56 AM,48.9,44.1,83,30.00,10.0,NNE,8.1,-,N/A,,Clear,20,2011-11-14 09:56:00
2:56 AM,48.0,44.1,86,30.01,10.0,Calm,Calm,-,N/A,,Partly Cloudy,0,2011-11-14 10:56:00
3:56 AM,44.6,42.8,93,30.00,10.0,WNW,3.5,-,N/A,,Clear,300,2011-11-14 11:56:00
4:56 AM,44.1,42.1,93,30.01,10.0,North,5.8,-,N/A,,Partly Cloudy,350,2011-11-14 12:56:00
5:09 AM,44.6,42.8,93,30.02,10.0,Calm,Calm,-,N/A,,Mostly Cloudy,0,2011-11-14 13:09:00
5:56 AM,46.0,42.1,86,30.02,10.0,Calm,Calm,-,N/A,,Overcast,0,2011-11-14 13:56:00
6:56 AM,44.1,42.1,93,30.04,10.0,Calm,Calm,-,N/A,,Partly Cloudy,0,2011-11-14 14:56:00
7:56 AM,46.9,43.0,86,30.05,10.0,Calm,Calm,-,N/A,,Clear,0,2011-11-14 15:56:00
8:56 AM,50.0,43.0,77,30.06,10.0,Calm,Calm,-,N/A,,Clear,0,2011-11-14 16:56:00
9:56 AM,54.0,43.0,66,30.07,10.0,Calm,Calm,-,N/A,,Clear,0,2011-11-14 17:56:00
10:56 AM,57.0,44.1,62,30.06,10.0,North,4.6,-,N/A,,Clear,350,2011-11-14 18:56:00
11:56 AM,59.0,44.1,58,30.04,10.0,Calm,Calm,-,N/A,,Clear,0,2011-11-14 19:56:00
12:56 PM,62.1,43.0,50,30.03,10.0,North,9.2,-,N/A,,Clear,350,2011-11-14 20:56:00
1:56 PM,63.0,43.0,48,30.01,10.0,North,8.1,-,N/A,,Clear,360,2011-11-14 21:56:00
2:56 PM,64.0,43.0,46,30.00,10.0,NNW,5.8,-,N/A,,Clear,330,2011-11-14 22:56:00
3:56 PM,60.1,44.1,55,30.01,10.0,WNW,5.8,-,N/A,,Clear,290,2011-11-14 23:56:00
4:56 PM,55.9,43.0,62,30.00,10.0,Calm,Calm,-,N/A,,Clear,0,2011-11-15 00:56:00
5:56 PM,50.0,44.1,80,30.03,10.0,SSW,3.5,-,N/A,,Clear,200,2011-11-15 01:56:00
6:56 PM,48.9,43.0,80,30.04,10.0,Calm,Calm,-,N/A,,Clear,0,2011-11-15 02:56:00
7:56 PM,48.0,43.0,83,30.07,10.0,Calm,Calm,-,N/A,,Clear,0,2011-11-15 03:56:00
8:56 PM,45.0,42.1,90,30.08,10.0,Calm,Calm,-,N/A,,Clear,0,2011-11-15 04:56:00
9:56 PM,45.0,42.1,90,30.09,10.0,Calm,Calm,-,N/A,,Clear,0,2011-11-15 05:56:00
10:56 PM,44.1,41.0,89,30.10,10.0,Calm,Calm,-,N/A,,Clear,0,2011-11-15 06:56:00
11:56 PM,41.0,37.9,89,30.10,10.0,Calm,Calm,-,N/A,,Clear,0,2011-11-15 07:56:00